EW2575 Weather Reports


Display with metric or nautical units.
time (UTC)temp
F
wind
direction
speed
MPH
gust
MPH
rain 1hr
in
rain 24hr
in
rain mn
in
humidity
%
barometer
mb
20260508193503 59 269 6.0 17.0 0.00 0.08 0.08 83 1014.8
20260508193002 59 229 9.0 16.0 0.00 0.08 0.08 84 1014.9
20260508192503 59 309 9.0 15.0 0.00 0.08 0.08 83 1014.8
20260508192003 59 275 8.0 15.0 0.00 0.08 0.08 84 1014.8
20260508191504 60 291 10.0 17.0 0.00 0.08 0.08 83 1014.6
20260508191002 60 285 7.0 18.0 0.00 0.08 0.08 83 1014.7
20260508190502 60 286 11.0 18.0 0.00 0.08 0.08 82 1014.6
20260508190001 60 275 10.0 17.0 0.00 0.08 0.08 82 1014.6
20260508185501 60 342 10.0 20.0 0.00 0.08 0.08 82 1014.5
20260508185002 61 272 11.0 20.0 0.00 0.08 0.08 81 1014.5
20260508184635 61 282 9.0 20.0 0.00 0.08 0.08 80 1014.4
20260508184100 61 257 10.0 20.0 0.00 0.08 0.08 79 1014.3
20260508183559 61 275 9.0 19.0 0.00 0.08 0.08 77 1014.3
20260508183114 61 269 11.0 18.0 0.00 0.08 0.08 78 1014.3
20260508182600 62 275 9.0 18.0 0.00 0.08 0.08 78 1014.3
20260508182100 61 236 10.0 18.0 0.00 0.08 0.08 78 1014.3
20260508181601 62 279 6.0 16.0 0.00 0.08 0.08 79 1014.2
20260508181059 61 259 5.0 19.0 0.00 0.08 0.08 80 1014.4
20260508180600 60 275 7.0 19.0 0.00 0.08 0.08 80 1014.4
20260508180105 61 279 9.0 16.0 0.00 0.08 0.08 82 1014.3
20260508175559 61 292 9.0 16.0 0.00 0.08 0.08 84 1014.3
20260508175058 61 290 5.0 16.0 0.00 0.08 0.08 82 1014.3
20260508174617 61 273 10.0 17.0 0.00 0.08 0.08 81 1014.2
20260508174102 61 272 11.0 17.0 0.00 0.08 0.08 80 1014.2
20260508173557 62 287 7.0 16.0 0.00 0.08 0.08 80 1014.2
20260508173118 62 281 6.0 16.0 0.00 0.08 0.08 78 1014.2
20260508172556 62 271 10.0 18.0 0.00 0.08 0.08 76 1014.3
20260508172056 63 271 9.0 18.0 0.00 0.08 0.08 78 1014.3
20260508171623 63 292 8.0 18.0 0.00 0.08 0.08 77 1014.3
20260508171056 63 270 9.0 18.0 0.00 0.08 0.08 76 1014.3
20260508170555 63 308 8.0 17.0 0.00 0.08 0.08 75 1014.2
20260508170055 63 329 9.0 17.0 0.00 0.08 0.08 74 1014.3
20260508165555 63 5 8.0 15.0 0.00 0.08 0.08 76 1014.3
20260508165054 63 297 7.0 16.0 0.00 0.08 0.08 80 1014.2
20260508164558 62 335 8.0 16.0 0.00 0.08 0.08 81 1014.3
20260508164051 62 288 6.0 16.0 0.00 0.08 0.08 84 1014.3
20260508163550 62 287 7.0 15.0 0.00 0.08 0.08 84 1014.3
20260508163056 62 313 8.0 15.0 0.00 0.08 0.08 86 1014.2
20260508162552 61 326 5.0 14.0 0.00 0.08 0.08 87 1014.3
20260508162049 61 323 5.0 14.0 0.00 0.08 0.08 89 1014.3
20260508161559 61 317 7.0 14.0 0.00 0.08 0.08 90 1014.4
20260508161048 60 292 7.0 14.0 0.00 0.08 0.08 91 1014.3
20260508160551 60 323 7.0 14.0 0.00 0.08 0.08 92 1014.3
20260508160048 61 288 7.0 17.0 0.00 0.08 0.08 93 1014.4
20260508155547 60 294 9.0 17.0 0.02 0.08 0.08 93 1014.4
20260508155048 60 300 5.0 14.0 0.06 0.08 0.08 94 1014.4
20260508154547 60 306 10.0 17.0 0.06 0.08 0.08 94 1014.3
20260508154046 59 261 9.0 17.0 0.07 0.08 0.08 95 1014.4
20260508153547 59 271 10.0 18.0 0.08 0.08 0.08 95 1014.4
20260508153046 59 267 12.0 17.0 0.08 0.08 0.08 95 1014.4
20260508152546 59 279 9.0 16.0 0.08 0.08 0.08 95 1014.4
20260508152045 59 294 8.0 17.0 0.08 0.08 0.08 95 1014.4
20260508151552 58 263 9.0 17.0 0.08 0.08 0.08 95 1014.4
20260508151044 58 263 10.0 18.0 0.08 0.08 0.08 95 1014.4
20260508150547 59 275 10.0 18.0 0.08 0.08 0.08 95 1014.3
20260508150045 58 288 8.0 18.0 0.08 0.08 0.08 94 1014.3
20260508145544 58 278 11.0 18.0 0.05 0.05 0.05 93 1014.3
20260508145043 59 288 11.0 15.0 0.02 0.02 0.02 93 1014.3
20260508144542 59 293 9.0 15.0 0.01 0.01 0.01 91 1014.4
20260508144042 59 272 7.0 14.0 0.01 0.01 0.01 90 1014.4
20260508143542 60 282 10.0 14.0 0.00 0.00 0.00 89 1014.4
20260508143042 59 317 4.0 10.0 0.00 0.00 0.00 89 1014.4
20260508142541 59 275 3.0 9.0 0.00 0.00 0.00 89 1014.4
20260508142041 59 334 3.0 10.0 0.00 0.00 0.00 88 1014.5
20260508141542 59 331 6.0 9.0 0.00 0.00 0.00 87 1014.5
20260508141042 59 305 2.0 6.0 0.00 0.00 0.00 87 1014.5
20260508140540 59 291 2.0 6.0 0.00 0.00 0.00 86 1014.5
20260508140040 59 327 2.0 8.0 0.00 0.00 0.00 84 1014.5
20260508135541 59 336 3.0 8.0 0.00 0.00 0.00 85 1014.5
20260508135041 59 298 2.0 12.0 0.00 0.00 0.00 86 1014.6
20260508134540 59 271 7.0 15.0 0.00 0.00 0.00 85 1014.6
20260508134040 59 277 6.0 15.0 0.00 0.00 0.00 84 1014.7
20260508133539 60 265 9.0 14.0 0.00 0.00 0.00 81 1014.7
20260508133059 60 269 10.0 14.0 0.00 0.00 0.00 80 1014.7
20260508132538 61 271 8.0 17.0 0.00 0.00 0.00 80 1014.7
20260508132040 61 279 10.0 17.0 0.00 0.00 0.00 77 1014.6
20260508131539 61 271 5.0 14.0 0.00 0.00 0.00 78 1014.6
20260508131038 61 266 9.0 14.0 0.00 0.00 0.00 77 1014.7
20260508130537 61 252 7.0 15.0 0.00 0.00 0.00 78 1014.6
20260508130038 61 269 9.0 15.0 0.00 0.00 0.00 79 1014.7
20260508125538 61 265 8.0 16.0 0.00 0.00 0.00 80 1014.7
20260508125037 61 256 10.0 16.0 0.00 0.00 0.00 80 1014.8
20260508124537 61 242 9.0 16.0 0.00 0.00 0.00 81 1014.9
20260508124036 61 259 11.0 15.0 0.00 0.00 0.00 80 1014.9
20260508123536 60 277 8.0 14.0 0.00 0.00 0.00 81 1015.0
20260508123039 60 263 7.0 11.0 0.00 0.00 0.00 83 1015.0
20260508122536 60 262 5.0 12.0 0.00 0.00 0.00 83 1015.0
20260508122036 60 256 6.0 13.0 0.00 0.00 0.00 83 1015.0
20260508121537 60 269 9.0 15.0 0.00 0.00 0.00 82 1015.1
20260508121036 60 265 10.0 17.0 0.00 0.00 0.00 81 1015.0
20260508120538 61 263 8.0 17.0 0.00 0.00 0.00 79 1015.0
20260508120040 61 271 10.0 15.0 0.00 0.00 0.00 78 1015.0
20260508115536 61 295 10.0 15.0 0.00 0.00 0.00 77 1015.0
20260508115038 61 262 8.0 15.0 0.00 0.00 0.00 78 1015.1
20260508114534 61 294 7.0 15.0 0.00 0.00 0.00 79 1015.1
20260508114034 61 267 11.0 15.0 0.00 0.00 0.00 78 1015.1
20260508113533 60 266 10.0 15.0 0.00 0.00 0.00 78 1015.1
20260508113039 61 342 11.0 15.0 0.00 0.00 0.00 78 1015.1
20260508112532 61 298 6.0 18.0 0.00 0.00 0.00 78 1015.1
20260508112031 61 300 9.0 18.0 0.00 0.00 0.00 79 1015.1
20260508111531 60 286 7.0 14.0 0.00 0.00 0.00 79 1015.2
20260508111031 60 274 7.0 18.0 0.00 0.00 0.00 78 1015.3
20260508110529 61 259 11.0 18.0 0.00 0.00 0.00 78 1015.3
20260508110029 60 264 9.0 15.0 0.00 0.00 0.00 76 1015.2
20260508105528 60 277 7.0 18.0 0.00 0.00 0.00 76 1015.2
20260508105028 60 276 10.0 16.0 0.00 0.00 0.00 75 1015.1
20260508104525 60 271 6.0 12.0 0.00 0.00 0.00 78 1015.1
20260508104024 60 269 6.0 13.0 0.00 0.00 0.00 77 1015.0
20260508103523 60 269 7.0 12.0 0.00 0.00 0.00 76 1014.9
20260508103027 60 282 4.0 12.0 0.00 0.00 0.00 79 1015.0
20260508102521 59 276 6.0 13.0 0.00 0.00 0.00 80 1014.9
20260508102020 59 281 8.0 13.0 0.00 0.00 0.00 80 1015.0
20260508101522 59 250 7.0 12.0 0.00 0.00 0.00 79 1015.0
20260508101020 59 260 7.0 12.0 0.00 0.00 0.00 79 1015.0
20260508100517 59 264 4.0 14.0 0.00 0.00 0.00 79 1015.1
20260508100019 59 282 8.0 12.0 0.00 0.00 0.00 79 1015.0
20260508095516 59 279 6.0 12.0 0.00 0.01 0.00 79 1015.0
20260508095116 59 267 7.0 11.0 0.00 0.01 0.00 79 1015.0
20260508094513 59 263 7.0 13.0 0.00 0.01 0.00 79 1015.0
20260508094014 59 267 7.0 11.0 0.00 0.01 0.00 79 1015.0
20260508093516 59 266 8.0 11.0 0.00 0.01 0.00 78 1014.9
20260508093013 59 251 6.0 13.0 0.00 0.01 0.00 79 1015.0
20260508092512 59 334 6.0 13.0 0.00 0.01 0.00 78 1014.9
20260508092011 59 269 8.0 11.0 0.00 0.01 0.00 78 1014.9
20260508091517 59 252 4.0 9.0 0.00 0.01 0.00 77 1014.9
20260508091009 59 268 1.0 4.0 0.00 0.01 0.00 78 1014.8
20260508090509 59 278 2.0 7.0 0.00 0.01 0.00 78 1014.9
20260508090012 58 302 5.0 7.0 0.00 0.01 0.00 78 1014.8
20260508085505 58 240 3.0 7.0 0.00 0.01 0.00 78 1014.7
20260508085007 58 262 3.0 8.0 0.00 0.01 0.00 78 1014.5
20260508084502 58 267 6.0 8.0 0.00 0.01 0.00 77 1014.5
20260508084104 58 245 3.0 6.0 0.00 0.01 0.00 78 1014.6
20260508083558 58 247 3.0 10.0 0.00 0.01 0.00 78 1014.6
20260508083058 57 274 5.0 10.0 0.00 0.01 0.00 78 1014.6
20260508082556 57 260 4.0 9.0 0.00 0.01 0.00 78 1014.5
20260508082055 57 254 6.0 9.0 0.00 0.01 0.00 78 1014.5
20260508081553 57 275 3.0 9.0 0.00 0.01 0.00 79 1014.5
20260508081052 57 242 5.0 8.0 0.00 0.01 0.00 81 1014.4
20260508080551 56 263 4.0 7.0 0.00 0.01 0.00 83 1014.4
20260508080056 56 153 3.0 5.0 0.00 0.01 0.00 84 1014.4
20260508075549 56 134 3.0 6.0 0.00 0.01 0.00 85 1014.3
20260508075049 55 159 1.0 7.0 0.00 0.01 0.00 86 1014.2
20260508074547 54 126 4.0 8.0 0.00 0.01 0.00 88 1014.2
20260508074046 54 124 5.0 10.0 0.00 0.01 0.00 88 1014.1
20260508073544 54 123 7.0 10.0 0.00 0.01 0.00 89 1014.2
20260508073048 53 106 7.0 11.0 0.00 0.01 0.00 89 1014.1
20260508072542 53 121 7.0 10.0 0.00 0.01 0.00 89 1014.1
20260508072041 53 130 7.0 10.0 0.00 0.01 0.00 90 1014.1
20260508071541 53 123 7.0 9.0 0.00 0.01 0.00 90 1014.1
20260508071039 53 115 7.0 9.0 0.00 0.01 0.00 90 1014.1
20260508070537 53 111 7.0 8.0 0.00 0.01 0.00 89 1014.0
20260508070036 53 111 5.0 7.0 0.00 0.01 0.00 89 1013.9
20260508065537 53 111 4.0 7.0 0.00 0.01 0.00 89 1014.0
20260508065034 54 117 4.0 7.0 0.00 0.01 0.00 89 1014.0
20260508064538 54 89 2.0 3.0 0.00 0.01 0.00 89 1013.9
20260508064034 54 89 1.0 3.0 0.00 0.01 0.00 89 1013.9
20260508063531 54 89 2.0 3.0 0.00 0.01 0.00 89 1013.8
20260508063057 54 89 1.0 3.0 0.00 0.01 0.00 89 1013.7
20260508062531 54 89 1.0 2.0 0.00 0.01 0.00 89 1013.7
20260508062030 54 89 0.0 2.0 0.00 0.01 0.00 89 1013.7
20260508061530 54 89 0.0 2.0 0.00 0.01 0.00 89 1013.7
20260508061029 54 89 0.0 3.0 0.00 0.01 0.00 89 1013.7
20260508060533 54 89 1.0 3.0 0.00 0.01 0.00 89 1013.8
20260508060029 54 89 0.0 2.0 0.00 0.01 0.00 89 1013.8
20260508055528 54 89 1.0 2.0 0.00 0.02 0.00 90 1013.7
20260508055028 54 89 0.0 2.0 0.00 0.02 0.00 90 1013.7
20260508054529 54 89 0.0 1.0 0.00 0.02 0.00 90 1013.7
20260508054028 54 89 0.0 2.0 0.00 0.02 0.00 90 1013.6
20260508053527 54 89 0.0 2.0 0.00 0.02 0.00 90 1013.7
20260508053042 54 89 0.0 2.0 0.00 0.02 0.00 90 1013.6
20260508052528 54 89 0.0 2.0 0.00 0.02 0.00 90 1013.6
20260508052031 54 89 1.0 3.0 0.00 0.02 0.00 90 1013.5
20260508051532 54 89 0.0 4.0 0.00 0.02 0.00 90 1013.5
20260508051027 54 89 2.0 4.0 0.00 0.02 0.00 90 1013.5
20260508050526 54 89 2.0 4.0 0.00 0.02 0.00 90 1013.4
20260508050030 54 89 2.0 4.0 0.00 0.02 0.00 90 1013.3
20260508045526 54 89 2.0 3.0 0.00 0.02 0.00 90 1013.4
20260508045026 54 89 1.0 3.0 0.00 0.02 0.00 90 1013.4
20260508044526 54 89 0.0 3.0 0.00 0.02 0.00 90 1013.3
20260508044024 55 89 2.0 4.0 0.00 0.02 0.00 90 1013.3
20260508043523 55 89 2.0 4.0 0.00 0.02 0.00 90 1013.3
20260508043026 55 89 2.0 3.0 0.00 0.02 0.00 89 1013.3
20260508042522 55 89 2.0 3.0 0.00 0.02 0.00 89 1013.4
20260508042026 55 211 1.0 2.0 0.00 0.02 0.00 89 1013.3
20260508041522 55 211 1.0 3.0 0.00 0.02 0.00 92 1013.3
20260508041021 55 211 1.0 3.0 0.00 0.02 0.00 89 1013.3
20260508040521 55 211 2.0 3.0 0.00 0.02 0.00 90 1013.3
20260508040020 55 211 2.0 3.0 0.00 0.02 0.00 90 1013.3
20260508035520 55 211 2.0 3.0 0.00 0.02 0.00 90 1013.4
20260508035021 55 211 2.0 3.0 0.00 0.02 0.00 90 1013.4
20260508034525 55 211 1.0 2.0 0.00 0.02 0.00 90 1013.5
20260508034017 55 210 1.0 3.0 0.00 0.02 0.00 90 1013.5
20260508033519 55 210 1.0 3.0 0.00 0.02 0.00 91 1013.5
20260508033024 55 244 0.0 2.0 0.00 0.02 0.00 91 1013.4
20260508032517 55 244 1.0 2.0 0.00 0.02 0.00 91 1013.5
20260508032017 55 244 0.0 3.0 0.00 0.02 0.00 91 1013.5
20260508031518 55 244 1.0 3.0 0.00 0.02 0.00 92 1013.6
20260508031015 55 244 0.0 4.0 0.00 0.02 0.00 92 1013.6
20260508030515 55 229 2.0 4.0 0.00 0.02 0.00 92 1013.6
20260508030122 55 217 2.0 4.0 0.00 0.02 0.00 92 1013.6
20260508025515 55 198 2.0 3.0 0.00 0.02 0.00 92 1013.6
20260508025015 56 198 1.0 3.0 0.00 0.02 0.00 92 1013.6
20260508024521 56 198 1.0 3.0 0.00 0.02 0.00 92 1013.7
20260508024013 56 198 1.0 3.0 0.00 0.02 0.00 92 1013.7
20260508023513 56 224 0.0 5.0 0.00 0.02 0.00 93 1013.7
20260508023014 56 189 2.0 5.0 0.00 0.02 0.00 93 1013.8
20260508022513 56 211 1.0 4.0 0.00 0.02 0.00 93 1013.7
20260508022012 56 182 2.0 4.0 0.00 0.02 0.00 92 1013.7
20260508021511 56 273 2.0 4.0 0.00 0.02 0.00 92 1013.8
20260508021013 56 273 2.0 3.0 0.00 0.02 0.00 92 1013.9
20260508020508 56 273 0.0 2.0 0.00 0.02 0.00 92 1014.0
20260508020008 56 273 0.0 2.0 0.00 0.02 0.00 93 1014.0
20260508015507 57 273 1.0 3.0 0.00 0.02 0.00 93 1014.1
20260508015007 56 273 1.0 3.0 0.00 0.02 0.00 93 1014.2
20260508014509 56 273 2.0 3.0 0.00 0.02 0.00 93 1014.3
20260508014006 56 273 0.0 3.0 0.00 0.02 0.00 93 1014.3
20260508013505 56 273 2.0 3.0 0.00 0.02 0.00 93 1014.3
20260508013005 56 273 1.0 2.0 0.00 0.02 0.00 93 1014.3
20260508012503 57 273 0.0 2.0 0.00 0.02 0.00 93 1014.4
20260508012005 57 273 0.0 3.0 0.00 0.02 0.00 93 1014.4
20260508011502 57 273 1.0 3.0 0.00 0.02 0.00 93 1014.5
20260508011053 57 273 0.0 2.0 0.00 0.02 0.00 93 1014.5
20260508010553 57 273 0.0 2.0 0.00 0.02 0.00 93 1014.5
20260508010101 57 273 1.0 2.0 0.00 0.02 0.00 93 1014.6
20260508005555 57 273 0.0 0.0 0.00 0.02 0.00 93 1014.6
20260508005052 57 273 0.0 0.0 0.00 0.02 0.00 93 1014.6
20260508004551 58 273 0.0 0.0 0.00 0.02 0.00 93 1014.7
20260508004050 57 273 0.0 0.0 0.00 0.02 0.00 93 1014.7
20260508003549 58 273 0.0 0.0 0.00 0.02 0.00 93 1014.7
20260508003100 58 273 0.0 0.0 0.00 0.02 0.00 93 1014.8
20260508002549 58 273 0.0 3.0 0.00 0.02 0.00 93 1014.8
20260508002049 58 273 0.0 6.0 0.00 0.02 0.00 93 1014.8
20260508001553 58 273 3.0 6.0 0.00 0.02 0.00 93 1014.9
20260508001148 58 273 2.0 3.0 0.00 0.02 0.00 93 1014.8
20260508000548 58 273 0.0 3.0 0.00 0.02 0.00 92 1014.9
20260508000048 58 273 0.0 1.0 0.00 0.02 0.00 92 1015.0
20260507235548 58 273 0.0 0.0 0.00 0.02 0.00 92 1014.9
20260507235046 58 273 0.0 0.0 0.00 0.02 0.00 92 1014.9
20260507234547 58 273 0.0 0.0 0.00 0.02 0.00 92 1014.9
20260507234051 58 273 0.0 0.0 0.00 0.02 0.00 92 1014.9
20260507233546 58 273 0.0 0.0 0.00 0.02 0.00 92 1015.0
20260507233046 58 273 0.0 0.0 0.00 0.02 0.00 92 1014.9
20260507232545 58 273 0.0 0.0 0.00 0.02 0.00 92 1014.9
20260507232046 58 273 0.0 0.0 0.00 0.02 0.00 92 1014.8
20260507231545 58 273 0.0 0.0 0.00 0.02 0.00 92 1014.9
20260507231043 58 273 0.0 0.0 0.00 0.02 0.00 92 1014.9
20260507230544 58 273 0.0 2.0 0.00 0.02 0.00 92 1015.0
20260507230058 58 273 0.0 3.0 0.00 0.02 0.00 92 1014.9
20260507225543 58 273 2.0 3.0 0.00 0.03 0.02 92 1015.0
20260507225043 58 273 1.0 3.0 0.00 0.03 0.02 92 1015.0
20260507224543 58 273 0.0 2.0 0.00 0.03 0.02 92 1014.9
20260507224042 58 273 1.0 3.0 0.00 0.03 0.02 92 1015.0
20260507223542 58 273 2.0 3.0 0.00 0.03 0.02 92 1015.0
20260507223130 58 273 0.0 2.0 0.00 0.03 0.02 92 1014.9
20260507222542 58 273 1.0 3.0 0.00 0.03 0.02 92 1014.9
20260507222042 58 273 0.0 2.0 0.00 0.03 0.02 92 1014.9
20260507221542 58 273 1.0 3.0 0.00 0.03 0.02 92 1014.8
20260507221041 58 273 1.0 3.0 0.00 0.03 0.02 92 1014.8
20260507220541 58 273 1.0 3.0 0.00 0.03 0.02 92 1014.8
20260507220040 58 273 1.0 4.0 0.00 0.03 0.02 92 1014.8
20260507215541 58 273 2.0 4.0 0.00 0.03 0.02 91 1014.8
20260507215041 58 273 1.0 4.0 0.00 0.03 0.02 91 1014.8
20260507214551 58 273 2.0 6.0 0.00 0.03 0.02 91 1014.8
20260507214040 58 273 2.0 4.0 0.00 0.03 0.02 91 1014.8
20260507213541 58 273 0.0 0.0 0.00 0.03 0.02 91 1014.8
20260507213041 58 273 0.0 0.0 0.00 0.03 0.02 90 1014.7
20260507212539 58 273 0.0 0.0 0.00 0.03 0.02 90 1014.7
20260507212040 58 273 0.0 0.0 0.00 0.03 0.02 90 1014.6
20260507211540 58 273 0.0 0.0 0.00 0.03 0.02 90 1014.6
20260507211039 58 273 0.0 0.0 0.00 0.03 0.02 90 1014.5
20260507210539 58 273 0.0 0.0 0.00 0.03 0.02 90 1014.5
20260507210042 58 273 0.0 0.0 0.00 0.03 0.02 90 1014.4
20260507205539 58 273 0.0 0.0 0.00 0.03 0.02 89 1014.4
20260507205040 58 273 0.0 0.0 0.00 0.03 0.02 89 1014.4
20260507204542 58 273 0.0 0.0 0.00 0.03 0.02 89 1014.4
20260507204038 59 273 0.0 0.0 0.00 0.03 0.02 89 1014.4
20260507203538 59 273 0.0 0.0 0.00 0.03 0.02 89 1014.4
20260507203041 59 273 0.0 0.0 0.00 0.03 0.02 89 1014.3
20260507202537 59 273 0.0 0.0 0.00 0.03 0.02 89 1014.2
20260507202040 59 273 0.0 0.0 0.00 0.03 0.02 89 1014.2
20260507201541 59 273 0.0 0.0 0.00 0.03 0.02 89 1014.1
20260507201037 59 273 0.0 0.0 0.00 0.03 0.02 89 1014.1
20260507200537 59 273 0.0 0.0 0.00 0.03 0.02 89 1014.0
20260507200051 59 273 0.0 0.0 0.00 0.03 0.02 89 1014.0
20260507195536 59 273 0.0 1.0 0.00 0.03 0.02 89 1013.9
20260507195039 59 273 0.0 2.0 0.00 0.03 0.02 89 1013.9
20260507194537 59 273 0.0 4.0 0.00 0.03 0.02 89 1013.9
20260507194036 59 273 2.0 6.0 0.00 0.03 0.02 88 1013.8